Time,TemperatureF,DewpointF,PressureIn,WindDirection,WindDirectionDegrees,WindSpeedMPH,WindSpeedGustMPH,Humidity,HourlyPrecipIn,Conditions,Clouds,dailyrainin,SoftwareType,DateUTC
2013-02-03 00:03:00,46.2,45.1,29.99,West,270,0.0,-999.0,96,-99.99,,,0.00,Acu-Link.com,2013-02-03 05:03:00,
2013-02-03 00:18:00,46.4,45.9,30.00,WSW,247,0.0,-999.0,98,-99.99,,,0.00,Acu-Link.com,2013-02-03 05:18:00,
2013-02-03 00:33:00,46.4,46.1,29.99,West,270,0.0,-999.0,99,-99.99,,,0.00,Acu-Link.com,2013-02-03 05:33:00,
2013-02-03 00:49:00,46.0,45.7,29.99,SSE,157,0.0,-999.0,99,-99.99,,,0.00,Acu-Link.com,2013-02-03 05:49:00,
2013-02-03 01:04:00,46.2,45.9,29.99,West,270,0.0,-999.0,99,-99.99,,,0.00,Acu-Link.com,2013-02-03 06:04:00,
2013-02-03 01:19:00,46.0,45.7,29.98,West,270,0.0,-999.0,99,-99.99,,,0.00,Acu-Link.com,2013-02-03 06:19:00,
2013-02-03 01:34:00,45.7,45.4,29.97,WSW,247,0.0,-999.0,99,-99.99,,,0.00,Acu-Link.com,2013-02-03 06:34:00,
2013-02-03 01:50:00,45.3,45.0,29.96,West,270,0.0,-999.0,99,-99.99,,,0.00,Acu-Link.com,2013-02-03 06:50:00,
2013-02-03 02:05:00,45.1,44.8,29.95,West,270,0.0,-999.0,99,-99.99,,,0.00,Acu-Link.com,2013-02-03 07:05:00,
2013-02-03 02:20:00,45.0,44.7,29.96,West,270,0.0,-999.0,99,-99.99,,,0.00,Acu-Link.com,2013-02-03 07:20:00,
2013-02-03 02:35:00,44.4,44.1,29.96,WSW,247,0.0,-999.0,99,-99.99,,,0.00,Acu-Link.com,2013-02-03 07:35:00,
2013-02-03 02:50:00,44.6,44.3,29.96,West,270,0.0,-999.0,99,-99.99,,,0.00,Acu-Link.com,2013-02-03 07:50:00,
2013-02-03 03:06:00,45.5,45.2,29.96,NW,315,5.3,-999.0,99,-99.99,,,0.00,Acu-Link.com,2013-02-03 08:06:00,
2013-02-03 03:21:00,45.9,43.4,29.96,West,270,3.7,-999.0,91,-99.99,,,0.00,Acu-Link.com,2013-02-03 08:21:00,
2013-02-03 03:36:00,45.3,42.5,29.96,NNE,22,2.2,-999.0,90,-99.99,,,0.00,Acu-Link.com,2013-02-03 08:36:00,
2013-02-03 03:51:00,44.8,41.5,29.96,NNW,337,2.7,-999.0,88,-99.99,,,0.00,Acu-Link.com,2013-02-03 08:51:00,
2013-02-03 04:06:00,45.1,40.6,29.96,NW,315,3.7,-999.0,84,-99.99,,,0.00,Acu-Link.com,2013-02-03 09:06:00,
2013-02-03 04:22:00,44.8,38.0,29.96,WNW,292,3.7,-999.0,77,-99.99,,,0.00,Acu-Link.com,2013-02-03 09:22:00,
2013-02-03 04:37:00,44.4,36.3,29.97,WNW,292,4.2,-999.0,73,-99.99,,,0.00,Acu-Link.com,2013-02-03 09:37:00,
2013-02-03 04:52:00,44.8,36.3,29.97,NW,315,5.8,-999.0,72,-99.99,,,0.00,Acu-Link.com,2013-02-03 09:52:00,
2013-02-03 05:07:00,45.5,35.6,29.97,NNW,337,9.9,-999.0,68,-99.99,,,0.00,Acu-Link.com,2013-02-03 10:07:00,
2013-02-03 05:22:00,46.0,35.7,29.97,WNW,292,5.8,-999.0,67,-99.99,,,0.00,Acu-Link.com,2013-02-03 10:22:00,
2013-02-03 05:38:00,45.5,34.8,29.98,WNW,292,4.2,-999.0,66,-99.99,,,0.00,Acu-Link.com,2013-02-03 10:38:00,
2013-02-03 05:53:00,45.5,35.6,29.98,WNW,292,5.8,-999.0,68,-99.99,,,0.00,Acu-Link.com,2013-02-03 10:53:00,
2013-02-03 06:08:00,45.1,34.8,29.99,NW,315,3.7,-999.0,67,-99.99,,,0.00,Acu-Link.com,2013-02-03 11:08:00,
2013-02-03 06:23:00,45.0,35.8,29.99,WNW,292,3.2,-999.0,70,-99.99,,,0.00,Acu-Link.com,2013-02-03 11:23:00,
2013-02-03 06:39:00,45.5,37.0,30.00,WNW,292,3.7,-999.0,72,-99.99,,,0.00,Acu-Link.com,2013-02-03 11:39:00,
2013-02-03 06:54:00,45.3,38.2,30.00,WNW,292,4.2,-999.0,76,-99.99,,,0.00,Acu-Link.com,2013-02-03 11:54:00,
2013-02-03 07:09:00,45.7,39.2,30.00,NW,315,4.2,-999.0,78,-99.99,,,0.00,Acu-Link.com,2013-02-03 12:09:00,
2013-02-03 07:24:00,45.3,40.1,30.02,NNW,337,4.7,-999.0,82,-99.99,,,0.00,Acu-Link.com,2013-02-03 12:24:00,
2013-02-03 07:39:00,45.0,40.2,30.02,West,270,2.7,-999.0,83,-99.99,,,0.00,Acu-Link.com,2013-02-03 12:39:00,
2013-02-03 07:55:00,46.0,41.4,30.02,WNW,292,2.7,-999.0,84,-99.99,,,0.00,Acu-Link.com,2013-02-03 12:55:00,
2013-02-03 08:10:00,47.7,42.8,30.02,NW,315,4.7,-999.0,83,-99.99,,,0.00,Acu-Link.com,2013-02-03 13:10:00,
2013-02-03 08:25:00,48.6,44.0,30.01,NNW,337,3.7,-999.0,84,-99.99,,,0.00,Acu-Link.com,2013-02-03 13:25:00,
2013-02-03 08:40:00,49.8,44.8,30.02,WNW,292,5.3,-999.0,83,-99.99,,,0.00,Acu-Link.com,2013-02-03 13:40:00,
2013-02-03 08:55:00,51.8,45.5,30.02,West,270,3.7,-999.0,79,-99.99,,,0.00,Acu-Link.com,2013-02-03 13:55:00,
2013-02-03 09:11:00,53.8,45.0,30.03,NW,315,6.8,-999.0,72,-99.99,,,0.00,Acu-Link.com,2013-02-03 14:11:00,
2013-02-03 09:26:00,55.9,45.1,30.02,NNW,337,4.7,-999.0,67,-99.99,,,0.00,Acu-Link.com,2013-02-03 14:26:00,
2013-02-03 09:41:00,57.4,45.3,30.01,NW,315,3.2,-999.0,64,-99.99,,,0.00,Acu-Link.com,2013-02-03 14:41:00,
2013-02-03 09:56:00,58.6,46.5,30.03,WNW,292,11.4,-999.0,64,-99.99,,,0.00,Acu-Link.com,2013-02-03 14:56:00,
2013-02-03 10:11:00,59.0,48.1,30.02,NW,315,9.4,-999.0,67,-99.99,,,0.00,Acu-Link.com,2013-02-03 15:11:00,
2013-02-03 10:27:00,59.9,48.9,30.02,NW,315,5.8,-999.0,67,-99.99,,,0.00,Acu-Link.com,2013-02-03 15:27:00,
2013-02-03 10:42:00,60.4,49.4,30.01,NW,315,10.9,-999.0,67,-99.99,,,0.00,Acu-Link.com,2013-02-03 15:42:00,
2013-02-03 10:57:00,60.8,49.8,30.01,NW,315,11.4,-999.0,67,-99.99,,,0.00,Acu-Link.com,2013-02-03 15:57:00,
2013-02-03 11:12:00,61.9,50.0,30.02,NNW,337,9.9,-999.0,65,-99.99,,,0.00,Acu-Link.com,2013-02-03 16:12:00,
2013-02-03 11:28:00,63.0,51.0,30.01,West,270,9.9,-999.0,65,-99.99,,,0.00,Acu-Link.com,2013-02-03 16:28:00,
2013-02-03 11:43:00,63.1,50.7,30.00,West,270,7.8,-999.0,64,-99.99,,,0.00,Acu-Link.com,2013-02-03 16:43:00,
2013-02-03 11:58:00,63.5,50.7,30.00,NNW,337,11.9,-999.0,63,-99.99,,,0.00,Acu-Link.com,2013-02-03 16:58:00,
2013-02-03 12:13:00,64.9,51.6,29.98,West,270,8.9,-999.0,62,-99.99,,,0.00,Acu-Link.com,2013-02-03 17:13:00,
2013-02-03 12:28:00,64.8,51.0,29.97,NW,315,9.4,-999.0,61,-99.99,,,0.00,Acu-Link.com,2013-02-03 17:28:00,
2013-02-03 12:44:00,65.8,51.5,29.96,West,270,5.3,-999.0,60,-99.99,,,0.00,Acu-Link.com,2013-02-03 17:44:00,
2013-02-03 12:59:00,66.6,51.4,29.96,WSW,247,7.8,-999.0,58,-99.99,,,0.00,Acu-Link.com,2013-02-03 17:59:00,
2013-02-03 13:14:00,66.9,50.7,29.94,WNW,292,8.3,-999.0,56,-99.99,,,0.00,Acu-Link.com,2013-02-03 18:14:00,
2013-02-03 13:29:00,66.9,50.2,29.93,West,270,5.3,-999.0,55,-99.99,,,0.00,Acu-Link.com,2013-02-03 18:29:00,
2013-02-03 13:44:00,68.0,50.2,29.92,West,270,9.9,-999.0,53,-99.99,,,0.00,Acu-Link.com,2013-02-03 18:44:00,
2013-02-03 13:59:00,67.5,49.2,29.92,West,270,6.3,-999.0,52,-99.99,,,0.00,Acu-Link.com,2013-02-03 18:59:00,
2013-02-03 14:15:00,68.0,48.1,29.91,WNW,292,9.4,-999.0,49,-99.99,,,0.00,Acu-Link.com,2013-02-03 19:15:00,
2013-02-03 14:30:00,68.5,45.7,29.91,WSW,247,5.8,-999.0,44,-99.99,,,0.00,Acu-Link.com,2013-02-03 19:30:00,
2013-02-03 14:45:00,67.6,45.5,29.90,West,270,6.8,-999.0,45,-99.99,,,0.00,Acu-Link.com,2013-02-03 19:45:00,
2013-02-03 15:00:00,68.2,42.9,29.90,West,270,6.8,-999.0,40,-99.99,,,0.00,Acu-Link.com,2013-02-03 20:00:00,
2013-02-03 15:15:00,68.5,43.2,29.90,West,270,5.3,-999.0,40,-99.99,,,0.00,Acu-Link.com,2013-02-03 20:15:00,
2013-02-03 15:31:00,68.2,42.3,29.89,WNW,292,7.8,-999.0,39,-99.99,,,0.00,Acu-Link.com,2013-02-03 20:31:00,
2013-02-03 15:46:00,68.2,40.9,29.89,NW,315,7.8,-999.0,37,-99.99,,,0.00,Acu-Link.com,2013-02-03 20:46:00,
2013-02-03 16:01:00,68.5,42.6,29.89,WNW,292,8.9,-999.0,39,-99.99,,,0.00,Acu-Link.com,2013-02-03 21:01:00,
2013-02-03 16:16:00,68.2,40.2,29.88,West,270,5.3,-999.0,36,-99.99,,,0.00,Acu-Link.com,2013-02-03 21:16:00,
2013-02-03 16:32:00,67.5,38.9,29.89,NW,315,7.8,-999.0,35,-99.99,,,0.00,Acu-Link.com,2013-02-03 21:32:00,
2013-02-03 16:47:00,67.3,39.4,29.89,WNW,292,6.8,-999.0,36,-99.99,,,0.00,Acu-Link.com,2013-02-03 21:47:00,
2013-02-03 17:02:00,66.6,38.8,29.89,WSW,247,3.7,-999.0,36,-99.99,,,0.00,Acu-Link.com,2013-02-03 22:02:00,
2013-02-03 17:17:00,66.4,40.0,29.88,WNW,292,3.7,-999.0,38,-99.99,,,0.00,Acu-Link.com,2013-02-03 22:17:00,
2013-02-03 17:32:00,65.7,40.7,29.88,West,270,2.7,-999.0,40,-99.99,,,0.00,Acu-Link.com,2013-02-03 22:32:00,
2013-02-03 17:48:00,64.6,38.4,29.88,West,270,2.2,-999.0,38,-99.99,,,0.00,Acu-Link.com,2013-02-03 22:48:00,
2013-02-03 18:03:00,63.3,39.2,29.89,WNW,292,1.7,-999.0,41,-99.99,,,0.00,Acu-Link.com,2013-02-03 23:03:00,
2013-02-03 18:18:00,61.9,37.3,29.89,West,270,1.7,-999.0,40,-99.99,,,0.00,Acu-Link.com,2013-02-03 23:18:00,
2013-02-03 18:33:00,60.4,39.0,29.90,West,270,1.7,-999.0,45,-99.99,,,0.00,Acu-Link.com,2013-02-03 23:33:00,
2013-02-03 18:48:00,60.1,38.1,29.90,WNW,292,4.2,-999.0,44,-99.99,,,0.00,Acu-Link.com,2013-02-03 23:48:00,
2013-02-03 19:04:00,60.3,37.7,29.91,West,270,3.2,-999.0,43,-99.99,,,0.00,Acu-Link.com,2013-02-04 00:04:00,
2013-02-03 19:19:00,59.5,37.0,29.90,West,270,5.8,-999.0,43,-99.99,,,0.00,Acu-Link.com,2013-02-04 00:19:00,
2013-02-03 19:34:00,59.2,37.3,29.91,West,270,4.2,-999.0,44,-99.99,,,0.00,Acu-Link.com,2013-02-04 00:34:00,
2013-02-03 19:49:00,59.2,36.7,29.91,WSW,247,5.3,-999.0,43,-99.99,,,0.00,Acu-Link.com,2013-02-04 00:49:00,
2013-02-03 20:05:00,58.5,36.7,29.92,West,270,4.2,-999.0,44,-99.99,,,0.00,Acu-Link.com,2013-02-04 01:05:00,
2013-02-03 20:20:00,57.6,37.5,29.93,West,270,2.7,-999.0,47,-99.99,,,0.00,Acu-Link.com,2013-02-04 01:20:00,
2013-02-03 20:35:00,57.2,38.7,29.93,West,270,4.2,-999.0,50,-99.99,,,0.00,Acu-Link.com,2013-02-04 01:35:00,
2013-02-03 20:50:00,56.5,39.6,29.94,West,270,4.7,-999.0,53,-99.99,,,0.00,Acu-Link.com,2013-02-04 01:50:00,
2013-02-03 21:06:00,55.9,40.4,29.94,West,270,7.3,-999.0,56,-99.99,,,0.00,Acu-Link.com,2013-02-04 02:06:00,
2013-02-03 21:21:00,55.4,41.3,29.94,West,270,4.2,-999.0,59,-99.99,,,0.00,Acu-Link.com,2013-02-04 02:21:00,
2013-02-03 21:36:00,55.0,41.8,29.94,WSW,247,5.3,-999.0,61,-99.99,,,0.00,Acu-Link.com,2013-02-04 02:36:00,
2013-02-03 21:51:00,54.5,42.6,29.94,West,270,4.2,-999.0,64,-99.99,,,0.00,Acu-Link.com,2013-02-04 02:51:00,
2013-02-03 22:06:00,54.0,42.9,29.94,West,270,5.8,-999.0,66,-99.99,,,0.00,Acu-Link.com,2013-02-04 03:06:00,
2013-02-03 22:44:00,53.8,42.7,29.94,WNW,292,3.2,-999.0,66,-99.99,,,0.00,Acu-Link.com,2013-02-04 03:44:00,
2013-02-03 22:59:00,52.9,43.4,29.95,West,270,3.7,-999.0,70,-99.99,,,0.00,Acu-Link.com,2013-02-04 03:59:00,
2013-02-03 23:14:00,52.7,43.6,29.95,West,270,3.2,-999.0,71,-99.99,,,0.00,Acu-Link.com,2013-02-04 04:14:00,
2013-02-03 23:29:00,52.2,43.8,29.96,West,270,2.7,-999.0,73,-99.99,,,0.00,Acu-Link.com,2013-02-04 04:29:00,
2013-02-03 23:44:00,51.8,43.8,29.94,West,270,5.8,-999.0,74,-99.99,,,0.00,Acu-Link.com,2013-02-04 04:44:00,
2013-02-03 23:59:00,51.4,43.4,29.94,WNW,292,5.8,-999.0,74,-99.99,,,0.00,Acu-Link.com,2013-02-04 04:59:00,